LANDSAT 7 (25682 NORAD) Tracking and Keplerian Element Data

This shows tracking and keplerian element data for the satellite.

Feedback or suggestion? Click here.




ElementValue
Catalog25682
NameLANDSAT 7
Epoch Orbit33789
Epoch Day160.2481734
Epoch Year2024
RAAN187.4589
Inclination97.8877
Eccentricity0.0001628
Argument of Perigee81.2716
Mean Anonmoly346.6379
Mean Motion14.60687114
Decay Rate9.93E-06
L11 25682U 99020A 24160.24817340 .00000993 00000+0 21279-3 0 9999
L22 25682 97.8877 187.4589 0001628 81.2716 346.6379 14.60687114337891



Live tracking and technical data element details for LANDSAT 7 (NORAD 25682). LANDSAT 7 can be tracked NOW for your location showing map with azimuth and elevation plus other details from your city location.







IsCatalogInMostPopularTable: catalog: 25682, numindb: 328
Update: records affected: 1



GetName: 25682 LANDSAT 7

Hit Count: updated at: Thu, 15 May 2025 19:52:54 GMT